Weather History for VDPP - February, 2013

Change the Weather History Date:

Monday, February 25, 2013

  Actual Average Record
Temperature  
Mean Temperature 86 °F -  
Max Temperature 98 °F 90 °F - (-1)
Min Temperature 74 °F 76 °F - (-1)
Cooling Degree Days 21    
Growing Degree Days 36 (Base 50)    
Moisture  
Dew Point 65 °F    
Average Humidity 46    
Maximum Humidity 74    
Minimum Humidity 27    
Precipitation  
Precipitation 0.00 in - - ()
Sea Level Pressure  
Sea Level Pressure 29.81 in    
Wind  
Wind Speed 6 mph ()    
Max Wind Speed 14 mph    
Max Gust Speed -    
Visibility 6.0 miles    
Events      
Averages and records for this station are not official NWS values.
T = Trace of Precipitation, MM = Missing Value Source: Averaged Metar Reports

Daily Weather History Graph

Daily Weather History Graph

Search for Another Location

Airport or City:

Trip Planner

Search our weather history database for the weather conditions in past years. The results will help you decide how hot, cold, wet, or windy it might be!

Date:

Astronomy

Feb. 25, 2013 Rise Set
Actual Time 6:17 AM ICT 6:09 PM ICT
Civil Twilight 5:56 AM ICT 6:31 PM ICT
Nautical Twilight 5:31 AM ICT 6:55 PM ICT
Astronomical Twilight 5:07 AM ICT 7:20 PM ICT
Moon 5:43 PM ICT (2/25) 5:31 AM ICT (2/25)
Length of Visible Light 12h 34m
Length of Day
11h 51m
Full, 100% of the Moon is Illuminated
Feb 25
Full
Feb 26
Full
Mar 5
Last Quarter
Mar 12
New
Mar 20
First Quarter

Hourly Weather History & Observations

Time (ICT) Temp. Heat Index Dew Point Humidity Pressure Visibility Wind Dir Wind Speed Gust Speed Precip Events Conditions
12:00 AM 84.2 °F 87.3 °F 68.0 °F 58% 29.83 in 5.6 mi North 2.3 mph - N/A   Scattered Clouds
12:30 AM 84.2 °F 88.4 °F 69.8 °F 62% 29.83 in 5.6 mi NE 3.5 mph - N/A   Scattered Clouds
1:00 AM 82.4 °F 86.3 °F 69.8 °F 66% 29.83 in 5.6 mi ENE 2.3 mph - N/A   Scattered Clouds
6:00 AM 78.8 °F - 68.0 °F 69% 29.83 in 6.2 mi North 4.6 mph - N/A   Scattered Clouds
7:00 AM 77 °F - 70 °F 74% 29.89 in 6 mi North 2.2 mph - -   Partly Cloudy
7:00 AM 80.6 °F 83.2 °F 68.0 °F 65% 29.86 in 6.2 mi NNE 5.8 mph - N/A   Partly Cloudy
7:30 AM 80.6 °F 83.2 °F 68.0 °F 65% 29.86 in 6.2 mi NNE 8.1 mph - N/A   Partly Cloudy
9:00 AM 86.0 °F 88.2 °F 66.2 °F 51% 29.89 in 6.2 mi ENE 13.8 mph - N/A   Partly Cloudy
9:30 AM 86.0 °F 89.4 °F 68.0 °F 55% 29.89 in 6.2 mi East 11.5 mph - N/A   Partly Cloudy
10:00 AM 87.8 °F 90.4 °F 66.2 °F 49% 29.89 in 6.2 mi ENE 10.4 mph - N/A   Partly Cloudy
10:30 AM 87.8 °F 90.4 °F 66.2 °F 49% 29.89 in 6.2 mi East 9.2 mph - N/A   Partly Cloudy
11:00 AM 91.4 °F 94.0 °F 66.2 °F 43% 29.89 in 6.2 mi East 9.2 mph - N/A   Partly Cloudy
11:30 AM 91.4 °F 93.2 °F 64.4 °F 41% 29.86 in 6.2 mi ENE 6.9 mph - N/A   Partly Cloudy
12:00 PM 93.2 °F 94.1 °F 62.6 °F 36% 29.83 in 6.2 mi ESE 6.9 mph - N/A   Partly Cloudy
12:30 PM 95.0 °F 95.2 °F 60.8 °F 32% 29.80 in 6.2 mi NNE 11.5 mph - N/A   Partly Cloudy
1:00 PM 96.8 °F 96.2 °F 59.0 °F 28% 29.80 in 6.2 mi NE 6.9 mph - N/A   Partly Cloudy
1:30 PM 96.8 °F 97.1 °F 60.8 °F 30% 29.77 in 6.2 mi East 10.4 mph - N/A   Partly Cloudy
2:00 PM 96.8 °F 96.2 °F 59.0 °F 28% 29.74 in 6.2 mi East 11.5 mph - N/A   Partly Cloudy
2:30 PM 96.8 °F 96.2 °F 59.0 °F 28% 29.74 in 6.2 mi East 12.7 mph - N/A   Partly Cloudy
3:00 PM 98.6 °F 98.5 °F 59.0 °F 27% 29.71 in 6.2 mi ESE 5.8 mph - N/A   Partly Cloudy
3:30 PM 98.6 °F 98.5 °F 59.0 °F 27% 29.71 in 6.2 mi ESE 4.6 mph - N/A   Partly Cloudy
4:00 PM 96.8 °F 96.2 °F 59.0 °F 28% 29.71 in 6.2 mi East 10.4 mph - N/A   Partly Cloudy
4:30 PM 96.8 °F 96.2 °F 59.0 °F 28% 29.71 in 6.2 mi ESE 8.1 mph - N/A   Partly Cloudy
5:00 PM 96.8 °F 96.2 °F 59.0 °F 28% 29.71 in 6.2 mi ESE 5.8 mph - N/A   Partly Cloudy
6:00 PM 95.0 °F 95.2 °F 60.8 °F 32% 29.74 in 6.2 mi South 4.6 mph - N/A   Partly Cloudy
6:30 PM 95.0 °F 95.2 °F 60.8 °F 32% 29.74 in 6.2 mi South 2.3 mph - N/A   Partly Cloudy
7:30 PM 91.4 °F 93.2 °F 64.4 °F 41% 29.77 in 5.6 mi South 8.1 mph - N/A   Partly Cloudy
8:00 PM 89.6 °F 92.2 °F 66.2 °F 46% 29.80 in 5.6 mi South 8.1 mph - N/A   Partly Cloudy
8:30 PM 87.8 °F 91.4 °F 68.0 °F 52% 29.83 in 5.6 mi South 6.9 mph - N/A   Partly Cloudy
9:00 PM 87.8 °F 91.4 °F 68.0 °F 52% 29.83 in 5.6 mi South 9.2 mph - N/A   Partly Cloudy
9:30 PM 86.0 °F 89.4 °F 68.0 °F 55% 29.83 in 5.6 mi South 8.1 mph - N/A   Partly Cloudy
10:00 PM 86.0 °F 90.4 °F 69.8 °F 58% 29.83 in 5.6 mi South 8.1 mph - N/A   Partly Cloudy
10:30 PM 86.0 °F 90.4 °F 69.8 °F 58% 29.83 in 5.6 mi SSW 8.1 mph - N/A   Partly Cloudy
11:30 PM 86.0 °F 90.4 °F 69.8 °F 58% 29.86 in 5.6 mi South 9.2 mph - N/A   Partly Cloudy